Flag for Syria Weather past 2 weeks in Aleppo, Syria

Now
61 °F

Passing clouds.


Feels Like: 61 °F
Forecast: 48 / 61 °F
Wind: 3 mph from East

Location: Iskenderun

Current Time: Feb 28, 2015 at 11:58:37 PM

Latest Report: Feb 28, 2015 at 8:00 PM


Visibility: 9 mi

Pressure: 30.02 "Hg

Humidity: 65%

Dew point: 49 °F

Location of AleppoLocation

Historic Weather in Aleppo — Graph

°F

Aleppo temperature yesterday

Maximum temperature yesterday: 74 °F (at 1:00 PM)
Minimum temperature yesterday: 60 °F (at 8:00 AM)
Average temperature yesterday: 69 °F

Past Weeks' High & Low Weather Summary

 TemperatureHumidityPressure
High74 °F (Feb 27, 1:00 PM)93% (Feb 20, 8:00 AM)30.28 "Hg (Feb 20, 8:00 AM)
Low38 °F (Feb 20, 8:00 AM)20% (Feb 27, 1:00 PM)29.62 "Hg (Feb 20, 1:00 PM)
Average57 °F53%29.98 "Hg
* Reported Feb 13 8:00 PM — Feb 28 8:00 PM, Aleppo, Weather by CustomWeather, © 2015

Note: Actual official high and low records may vary slightly from our data, if they occured in-between our weather recording intervals... More about our weather records

Advertising

Aleppo weather history for previous 24 hours

 ConditionsComfort  
Time TempWeatherWind HumidityBarometerVisibility
8:00 PM
Sat, Feb 28
61 °FPassing clouds.3 mph65%30.02 "Hg9 mi
7:00 PM62 °FPassing clouds.6 mph66%30.01 "Hg9 mi
6:00 PM64 °FPassing clouds.1 mph49%30.00 "Hg9 mi
5:00 PM64 °FScattered clouds.5 mph59%29.99 "Hg9 mi
4:00 PM65 °FScattered clouds.10 mph64%29.99 "Hg9 mi
3:00 PM66 °FScattered clouds.14 mph64%29.97 "Hg9 mi
2:00 PM66 °FScattered clouds.16 mph69%29.96 "Hg12 mi
1:00 PM68 °FPassing clouds.9 mph58%29.95 "Hg9 mi
12:00 PM67 °FPassing clouds.5 mph51%29.95 "Hg9 mi
11:00 AM70 °FPassing clouds.3 mph37%29.96 "Hg9 mi
10:00 AM68 °FPassing clouds.5 mph36%29.96 "Hg9 mi
9:00 AM65 °FPassing clouds.5 mph37%29.93 "Hg9 mi
8:00 AM63 °FPassing clouds.6 mph37%29.91 "Hg9 mi
5:00 AM64 °FPassing clouds.6 mph33%29.89 "Hg12 mi
3:00 AMN/APassing clouds.N/AN/AN/A0 mi
2:00 AM65 °FClear.9 mph31%29.87 "Hg12 mi
11:00 PM
Fri, Feb 27
70 °FClear.9 mph25%29.89 "Hg12 mi
Weather by CustomWeather, © 2015

See weather overviewHow to use our weather pages